2019-037F (44370 NORAD) Tracking and Keplerian Element Data

This shows tracking and keplerian element data for the satellite.

Feedback or suggestion? Click here.




ElementValue
Catalog44370
Name2019-037F
Epoch Orbit328
Epoch Day201.82428101
Epoch Year2019
RAAN169.1043
Inclination45.0124
Eccentricity0.0015803
Argument of Perigee23.3885
Mean Anonmoly336.77
Mean Motion15.39206733
Decay Rate-3.49E-06
L11 44370U 19037F 19201.82428101 -.00000349 00000-0 00000-0 0 9994
L22 44370 45.0124 169.1043 0015803 23.3885 336.7700 15.39206733 3284

Live tracking and technical data element details for 2019-037F (NORAD 44370). 2019-037F can be tracked NOW for your location showing map with azimuth and elevation plus other details from your city location.

Track the satellite on the map from your city or location and see movement details for azimuth, elevation, latitude, longitude, range, height, and movement on the map or in text.







IsCatalogInMostPopularTable: catalog: 44370, numindb: 8
Update: records affected: 1



GetName: 44370 2019-037F

Hit Count: updated at: Sun, 21 Jul 2019 21:41:22 GMT